SWA1298 KPHX-MMPR

Flight info

Callsign SWA1298
Flight time 2h 2m
Altitude 37000
Route STRRM1 TUS J92 VYLLA UT12 CUL UJ7 MZT J141 OBRUG OBRUG1B
Aircraft B737/M-SADE2E3GIJ4RWZ/LB1D1

Departure

Time 2026-04-22 13:44
Airport Phoenix Sky Harbor International Airport (KPHX)

Arrival

Time 2026-04-22 15:46
Airport Puerto Vallarta International Airport (MMPR)
Time Latitude Longitude Altitude Speed Heading
2026-04-22 13:21 33.43360 -111.99976 1124 ft 0 kts 40°
2026-04-22 13:33 33.43356 -111.99981 1113 ft 2 kts 33°
2026-04-22 13:33 33.43341 -111.99989 1111 ft 2 kts 12°
2026-04-22 13:33 33.43325 -111.99990 1116 ft 2 kts 345°
2026-04-22 13:33 33.43310 -111.99982 1113 ft 2 kts 319°
2026-04-22 13:34 33.43299 -111.99967 1117 ft 2 kts 297°
2026-04-22 13:34 33.43295 -111.99955 1116 ft 1 kts 282°
2026-04-22 13:34 33.43295 -111.99953 1116 ft 0 kts 279°
2026-04-22 13:35 33.43294 -111.99956 1116 ft 0 kts 267°
2026-04-22 13:36 33.43293 -111.99963 1118 ft 2 kts 261°
2026-04-22 13:36 33.43289 -111.99988 1124 ft 4 kts 261°
2026-04-22 13:36 33.43284 -112.00030 1120 ft 6 kts 263°
2026-04-22 13:36 33.43282 -112.00085 1124 ft 8 kts 267°
2026-04-22 13:37 33.43280 -112.00155 1124 ft 9 kts 270°
2026-04-22 13:37 33.43283 -112.00238 1124 ft 11 kts 272°
2026-04-22 13:37 33.43285 -112.00332 1124 ft 12 kts 272°
2026-04-22 13:37 33.43288 -112.00439 1120 ft 13 kts 272°
2026-04-22 13:38 33.43292 -112.00556 1124 ft 15 kts 272°
2026-04-22 13:38 33.43288 -112.00781 1124 ft 13 kts 268°
2026-04-22 13:38 33.43286 -112.00884 1121 ft 12 kts 270°
2026-04-22 13:39 33.43286 -112.00985 1119 ft 12 kts 270°
2026-04-22 13:39 33.43287 -112.01087 1117 ft 13 kts 270°
2026-04-22 13:39 33.43287 -112.01195 1123 ft 14 kts 270°
2026-04-22 13:39 33.43287 -112.01311 1123 ft 14 kts 270°
2026-04-22 13:40 33.43288 -112.01434 1116 ft 15 kts 270°
2026-04-22 13:40 33.43288 -112.01562 1120 ft 16 kts 270°
2026-04-22 13:40 33.43289 -112.01695 1121 ft 16 kts 270°
2026-04-22 13:40 33.43287 -112.01831 1123 ft 16 kts 267°
2026-04-22 13:41 33.43283 -112.01961 1124 ft 15 kts 268°
2026-04-22 13:41 33.43281 -112.02087 1124 ft 15 kts 270°
2026-04-22 13:41 33.43283 -112.02209 1124 ft 14 kts 272°
2026-04-22 13:41 33.43287 -112.02332 1121 ft 15 kts 271°
2026-04-22 13:42 33.43287 -112.02466 1116 ft 16 kts 269°
2026-04-22 13:42 33.43286 -112.02606 1123 ft 18 kts 269°
2026-04-22 13:42 33.43215 -112.02695 1119 ft 15 kts 181°
2026-04-22 13:42 33.43135 -112.02689 1119 ft 11 kts 164°
2026-04-22 13:43 33.43108 -112.02606 1125 ft 11 kts 88°
2026-04-22 13:43 33.43109 -112.02565 1125 ft 0 kts 88°
2026-04-22 13:43 33.43111 -112.02371 1125 ft 58 kts 90°
2026-04-22 13:43 33.43109 -112.01605 1124 ft 124 kts 90°
2026-04-22 13:44 33.43113 -112.00357 1154 ft 172 kts 88°
2026-04-22 13:44 33.43119 -111.98892 1826 ft 169 kts 89°
2026-04-22 13:44 33.43153 -111.97510 2535 ft 171 kts 89°
2026-04-22 13:44 33.43240 -111.95993 2853 ft 196 kts 86°
2026-04-22 13:45 33.43341 -111.94276 3120 ft 222 kts 86°
2026-04-22 13:45 33.43436 -111.92351 3525 ft 238 kts 87°
2026-04-22 13:45 33.43520 -111.90354 4262 ft 241 kts 87°
2026-04-22 13:45 33.43562 -111.88333 4985 ft 248 kts 96°
2026-04-22 13:46 33.42868 -111.86362 5276 ft 270 kts 134°
2026-04-22 13:46 33.41403 -111.84915 6005 ft 275 kts 145°
2026-04-22 13:46 33.39882 -111.83549 6847 ft 278 kts 145°
2026-04-22 13:46 33.38333 -111.82135 7686 ft 281 kts 146°
2026-04-22 13:47 33.36712 -111.80807 8533 ft 282 kts 160°
2026-04-22 13:47 33.34822 -111.80366 9469 ft 274 kts 186°
2026-04-22 13:47 33.32951 -111.80700 10375 ft 274 kts 196°
2026-04-22 13:47 33.31010 -111.81228 10737 ft 296 kts 197°
2026-04-22 13:48 33.28997 -111.81798 11367 ft 306 kts 197°
2026-04-22 13:48 33.26907 -111.82380 12163 ft 310 kts 197°
2026-04-22 13:48 33.24782 -111.82961 12976 ft 315 kts 197°
2026-04-22 13:48 33.22623 -111.83541 13810 ft 320 kts 197°
2026-04-22 13:49 33.20434 -111.84123 14563 ft 325 kts 197°
2026-04-22 13:49 33.18206 -111.84714 15336 ft 329 kts 197°
2026-04-22 13:49 33.15961 -111.85331 16120 ft 332 kts 200°
2026-04-22 13:49 33.13873 -111.86466 16867 ft 330 kts 215°
2026-04-22 13:50 33.11904 -111.87907 17666 ft 334 kts 216°
2026-04-22 13:50 33.09915 -111.89386 18417 ft 339 kts 216°
2026-04-22 13:50 33.07915 -111.90851 19076 ft 343 kts 216°
2026-04-22 13:50 33.05856 -111.92334 19776 ft 347 kts 216°
2026-04-22 13:51 33.03772 -111.93823 20499 ft 351 kts 216°
2026-04-22 13:51 33.01575 -111.95149 21145 ft 363 kts 202°
2026-04-22 13:51 32.99027 -111.95577 21793 ft 378 kts 184°
2026-04-22 13:51 32.96396 -111.95001 22440 ft 395 kts 165°
2026-04-22 13:52 32.93841 -111.93715 23103 ft 402 kts 161°
2026-04-22 13:52 32.91275 -111.92329 23688 ft 407 kts 161°
2026-04-22 13:52 32.88710 -111.90802 24181 ft 418 kts 150°
2026-04-22 13:52 32.86514 -111.88466 24715 ft 428 kts 137°
2026-04-22 13:53 32.84478 -111.85867 25266 ft 432 kts 136°
2026-04-22 13:53 32.82463 -111.83243 25752 ft 437 kts 136°
2026-04-22 13:53 32.80396 -111.80549 26237 ft 442 kts 136°
2026-04-22 13:53 32.78308 -111.77847 26717 ft 446 kts 136°
2026-04-22 13:54 32.76185 -111.75121 27185 ft 450 kts 136°
2026-04-22 13:54 32.74047 -111.72393 27714 ft 452 kts 137°
2026-04-22 13:54 32.71913 -111.69684 28182 ft 456 kts 137°
2026-04-22 13:54 32.69732 -111.66922 28636 ft 460 kts 137°
2026-04-22 13:55 32.67523 -111.64130 29082 ft 464 kts 137°
2026-04-22 13:55 32.65297 -111.61319 29529 ft 468 kts 137°
2026-04-22 13:55 32.63088 -111.58531 29961 ft 471 kts 137°
2026-04-22 13:55 32.60825 -111.55677 30395 ft 475 kts 137°
2026-04-22 13:56 32.58549 -111.52808 30783 ft 478 kts 137°
2026-04-22 13:56 32.56264 -111.49929 31159 ft 480 kts 137°
2026-04-22 13:56 32.53970 -111.47040 31579 ft 481 kts 138°
2026-04-22 13:56 32.51667 -111.44143 31953 ft 483 kts 138°
2026-04-22 13:57 32.49382 -111.41269 32365 ft 484 kts 138°
2026-04-22 13:57 32.47069 -111.38364 32824 ft 483 kts 138°
2026-04-22 13:57 32.44762 -111.35467 33286 ft 481 kts 138°
2026-04-22 13:57 32.42460 -111.32580 33704 ft 481 kts 138°
2026-04-22 13:58 32.40162 -111.29701 34078 ft 481 kts 138°
2026-04-22 13:58 32.37862 -111.26821 34424 ft 481 kts 138°
2026-04-22 13:58 32.35564 -111.23948 34709 ft 481 kts 139°
2026-04-22 13:58 32.33280 -111.21095 34977 ft 482 kts 139°
2026-04-22 13:59 32.30966 -111.18205 35281 ft 483 kts 139°
2026-04-22 13:59 32.28646 -111.15311 35589 ft 483 kts 139°
2026-04-22 13:59 32.26358 -111.12457 35878 ft 483 kts 138°
2026-04-22 13:59 32.24037 -111.09566 36151 ft 484 kts 138°
2026-04-22 14:00 32.21712 -111.06670 36397 ft 485 kts 138°
2026-04-22 14:00 32.19384 -111.03775 36677 ft 486 kts 138°
2026-04-22 14:00 32.17084 -111.00914 36947 ft 486 kts 138°
2026-04-22 14:00 32.14754 -110.98019 37124 ft 488 kts 138°
2026-04-22 14:01 32.09563 -110.93057 37147 ft 469 kts 164°
2026-04-22 14:01 32.06511 -110.91893 37130 ft 454 kts 178°
2026-04-22 14:01 32.03413 -110.91613 37151 ft 439 kts 190°
2026-04-22 14:02 31.97360 -110.91923 37112 ft 437 kts 192°
2026-04-22 14:02 31.91268 -110.92306 37081 ft 438 kts 192°
2026-04-22 14:03 31.85161 -110.92628 37052 ft 439 kts 191°
2026-04-22 14:03 31.79043 -110.92914 37030 ft 440 kts 191°
2026-04-22 14:04 31.72952 -110.93191 37011 ft 441 kts 191°
2026-04-22 14:04 31.66796 -110.93473 37011 ft 441 kts 191°
2026-04-22 14:05 31.60668 -110.93751 37103 ft 441 kts 191°
2026-04-22 14:06 31.51492 -110.94171 37144 ft 440 kts 191°
2026-04-22 14:06 31.45351 -110.94451 37172 ft 440 kts 191°
2026-04-22 14:07 31.39265 -110.94728 37172 ft 439 kts 191°
2026-04-22 14:07 31.33110 -110.94226 37163 ft 456 kts 174°
2026-04-22 14:07 31.30042 -110.93087 37146 ft 467 kts 164°
2026-04-22 14:08 31.27082 -110.91401 37146 ft 472 kts 159°
2026-04-22 14:08 31.21312 -110.87762 37107 ft 473 kts 158°
2026-04-22 14:09 31.15523 -110.84068 37083 ft 473 kts 159°
2026-04-22 14:09 31.09707 -110.80445 37033 ft 474 kts 159°
2026-04-22 14:10 31.03888 -110.76865 37017 ft 475 kts 159°
2026-04-22 14:10 30.98029 -110.73278 37014 ft 476 kts 159°
2026-04-22 14:11 30.92170 -110.69686 37024 ft 475 kts 159°
2026-04-22 14:11 30.86351 -110.66121 37010 ft 474 kts 159°
2026-04-22 14:12 30.80500 -110.62543 37018 ft 474 kts 159°
2026-04-22 14:12 30.74677 -110.58989 37033 ft 475 kts 159°
2026-04-22 14:13 30.68802 -110.55408 37021 ft 476 kts 159°
2026-04-22 14:13 30.62915 -110.51823 37024 ft 477 kts 160°
2026-04-22 14:14 30.57059 -110.48262 37017 ft 477 kts 160°
2026-04-22 14:14 30.52159 -110.45287 37039 ft 478 kts 159°
2026-04-22 14:15 30.45297 -110.41126 37040 ft 478 kts 159°
2026-04-22 14:15 30.40372 -110.38144 37018 ft 479 kts 160°
2026-04-22 14:16 30.33509 -110.33989 37046 ft 477 kts 160°
2026-04-22 14:16 30.28585 -110.31016 37046 ft 478 kts 160°
2026-04-22 14:17 30.22681 -110.27458 37041 ft 478 kts 160°
2026-04-22 14:17 30.16759 -110.23890 37010 ft 479 kts 160°
2026-04-22 14:18 30.10873 -110.20349 37041 ft 479 kts 160°
2026-04-22 14:18 30.04977 -110.16807 37051 ft 480 kts 160°
2026-04-22 14:19 29.99048 -110.13250 37052 ft 481 kts 160°
2026-04-22 14:19 29.93095 -110.09684 37018 ft 482 kts 160°
2026-04-22 14:20 29.84154 -110.04333 37045 ft 482 kts 160°
2026-04-22 14:20 29.78201 -110.00777 37054 ft 482 kts 160°
2026-04-22 14:21 29.69281 -109.95457 37038 ft 484 kts 160°
2026-04-22 14:22 29.60295 -109.90118 37046 ft 483 kts 160°
2026-04-22 14:23 29.51356 -109.84822 37051 ft 482 kts 160°
2026-04-22 14:23 29.45383 -109.81286 37053 ft 481 kts 160°
2026-04-22 14:24 29.39457 -109.77785 37036 ft 481 kts 160°
2026-04-22 14:24 29.33499 -109.74272 37061 ft 480 kts 160°
2026-04-22 14:25 29.27593 -109.70782 37062 ft 480 kts 160°
2026-04-22 14:25 29.21632 -109.67263 37064 ft 481 kts 160°
2026-04-22 14:26 29.15670 -109.63765 37064 ft 480 kts 160°
2026-04-22 14:26 29.09758 -109.60297 37067 ft 481 kts 160°
2026-04-22 14:27 29.03802 -109.56790 37055 ft 480 kts 161°
2026-04-22 14:27 28.97848 -109.53312 37068 ft 479 kts 160°
2026-04-22 14:28 28.91933 -109.49845 37048 ft 480 kts 160°
2026-04-22 14:28 28.85964 -109.46349 37057 ft 481 kts 160°
2026-04-22 14:29 28.80033 -109.42938 37093 ft 480 kts 160°
2026-04-22 14:29 28.74072 -109.39423 37074 ft 482 kts 160°
2026-04-22 14:30 28.68096 -109.35918 37061 ft 484 kts 160°
2026-04-22 14:30 28.62094 -109.32426 37079 ft 485 kts 160°
2026-04-22 14:31 28.56108 -109.28958 37066 ft 484 kts 162°
2026-04-22 14:31 28.50089 -109.25563 37100 ft 485 kts 160°
2026-04-22 14:32 28.44089 -109.22019 37118 ft 486 kts 160°
2026-04-22 14:32 28.38060 -109.18494 37096 ft 487 kts 160°
2026-04-22 14:33 28.32052 -109.15024 37100 ft 487 kts 160°
2026-04-22 14:33 28.25986 -109.11526 37128 ft 489 kts 161°
2026-04-22 14:34 28.19936 -109.08040 37109 ft 490 kts 160°
2026-04-22 14:34 28.13843 -109.04550 37076 ft 487 kts 160°
2026-04-22 14:35 28.07844 -109.01102 37111 ft 485 kts 160°
2026-04-22 14:35 28.01840 -108.97637 37132 ft 484 kts 160°
2026-04-22 14:36 27.95827 -108.94197 37117 ft 482 kts 160°
2026-04-22 14:36 27.89832 -108.90775 37062 ft 482 kts 160°
2026-04-22 14:37 27.83834 -108.87369 37117 ft 488 kts 160°
2026-04-22 14:37 27.77756 -108.83886 37117 ft 491 kts 160°
2026-04-22 14:38 27.71682 -108.80403 37108 ft 484 kts 160°
2026-04-22 14:38 27.65725 -108.77009 37111 ft 482 kts 160°
2026-04-22 14:39 27.59730 -108.73598 37084 ft 481 kts 160°
2026-04-22 14:39 27.53734 -108.70198 37101 ft 481 kts 160°
2026-04-22 14:40 27.44798 -108.65125 37094 ft 481 kts 160°
2026-04-22 14:40 27.38808 -108.61739 37091 ft 481 kts 160°
2026-04-22 14:41 27.32812 -108.58356 37101 ft 480 kts 160°
2026-04-22 14:41 27.26863 -108.55011 37042 ft 478 kts 160°
2026-04-22 14:42 27.20938 -108.51671 37097 ft 479 kts 160°
2026-04-22 14:42 27.14913 -108.48263 37062 ft 485 kts 160°
2026-04-22 14:43 27.08901 -108.44869 37099 ft 489 kts 159°
2026-04-22 14:43 27.02806 -108.41426 37086 ft 486 kts 160°
2026-04-22 14:44 26.96834 -108.38069 37086 ft 481 kts 160°
2026-04-22 14:44 26.90847 -108.34713 37084 ft 481 kts 160°
2026-04-22 14:45 26.84851 -108.31355 37067 ft 482 kts 159°
2026-04-22 14:45 26.78841 -108.27992 37065 ft 482 kts 159°
2026-04-22 14:46 26.72875 -108.24655 37077 ft 483 kts 159°
2026-04-22 14:46 26.66854 -108.21293 37085 ft 483 kts 159°
2026-04-22 14:47 26.60815 -108.17925 37076 ft 484 kts 159°
2026-04-22 14:47 26.54646 -108.15018 37091 ft 477 kts 168°
2026-04-22 14:48 26.48390 -108.12688 37091 ft 476 kts 169°
2026-04-22 14:48 26.42085 -108.10356 37082 ft 477 kts 168°
2026-04-22 14:49 26.35815 -108.08164 37091 ft 470 kts 167°
2026-04-22 14:49 26.29675 -108.05671 37061 ft 473 kts 167°
2026-04-22 14:50 26.23476 -108.03236 37094 ft 470 kts 167°
2026-04-22 14:50 26.17271 -108.00861 37108 ft 471 kts 168°
2026-04-22 14:51 26.11060 -107.98530 37094 ft 466 kts 169°
2026-04-22 14:51 26.04890 -107.96209 37082 ft 470 kts 167°
2026-04-22 14:52 25.98714 -107.93794 37068 ft 474 kts 167°
2026-04-22 14:52 25.92451 -107.91402 37057 ft 476 kts 167°
2026-04-22 14:53 25.86148 -107.89002 37071 ft 478 kts 167°
2026-04-22 14:53 25.79866 -107.86617 37071 ft 480 kts 167°
2026-04-22 14:54 25.73521 -107.84211 37038 ft 481 kts 167°
2026-04-22 14:54 25.67211 -107.81818 37055 ft 481 kts 167°
2026-04-22 14:55 25.60873 -107.79417 37048 ft 480 kts 167°
2026-04-22 14:55 25.54561 -107.77029 37057 ft 477 kts 167°
2026-04-22 14:56 25.48316 -107.74669 37047 ft 475 kts 167°
2026-04-22 14:56 25.42056 -107.72307 37062 ft 473 kts 167°
2026-04-22 14:57 25.35857 -107.69971 37057 ft 472 kts 167°
2026-04-22 14:57 25.29617 -107.67621 37057 ft 472 kts 167°
2026-04-22 14:58 25.23424 -107.65291 37061 ft 472 kts 167°
2026-04-22 14:58 25.17206 -107.62954 37033 ft 472 kts 166°
2026-04-22 14:59 25.11023 -107.60636 37053 ft 472 kts 167°
2026-04-22 14:59 25.04782 -107.58300 37070 ft 472 kts 167°
2026-04-22 15:00 24.98583 -107.55983 37075 ft 472 kts 167°
2026-04-22 15:00 24.92335 -107.53647 37058 ft 473 kts 167°
2026-04-22 15:01 24.86082 -107.51311 37060 ft 474 kts 166°
2026-04-22 15:01 24.79871 -107.48994 37067 ft 474 kts 166°
2026-04-22 15:02 24.73828 -107.45921 37079 ft 483 kts 149°
2026-04-22 15:02 24.68353 -107.41689 37066 ft 484 kts 147°
2026-04-22 15:03 24.62846 -107.37362 37071 ft 484 kts 148°
2026-04-22 15:03 24.57355 -107.33140 37049 ft 484 kts 148°
2026-04-22 15:04 24.51810 -107.28917 37046 ft 484 kts 148°
2026-04-22 15:04 24.46304 -107.24726 37047 ft 483 kts 148°
2026-04-22 15:05 24.41703 -107.21225 37046 ft 483 kts 148°
2026-04-22 15:05 24.35267 -107.16345 37047 ft 482 kts 148°
2026-04-22 15:06 24.30633 -107.12837 37038 ft 482 kts 148°
2026-04-22 15:06 24.25150 -107.08690 37041 ft 481 kts 148°
2026-04-22 15:07 24.19634 -107.04520 37056 ft 480 kts 148°
2026-04-22 15:07 24.14163 -107.00388 37045 ft 480 kts 148°
2026-04-22 15:08 24.08654 -106.96232 37045 ft 479 kts 148°
2026-04-22 15:08 24.03189 -106.92113 37032 ft 479 kts 148°
2026-04-22 15:09 23.97695 -106.87976 37044 ft 478 kts 148°
2026-04-22 15:09 23.92207 -106.83852 37047 ft 478 kts 148°
2026-04-22 15:10 23.86759 -106.79767 37047 ft 478 kts 148°
2026-04-22 15:10 23.81274 -106.75655 37050 ft 478 kts 148°
2026-04-22 15:11 23.75777 -106.71538 37048 ft 478 kts 148°
2026-04-22 15:11 23.70286 -106.67429 37053 ft 478 kts 148°
2026-04-22 15:12 23.64815 -106.63339 37042 ft 479 kts 148°
2026-04-22 15:12 23.59303 -106.59222 37042 ft 479 kts 148°
2026-04-22 15:13 23.53840 -106.55147 37049 ft 479 kts 148°
2026-04-22 15:13 23.48335 -106.51047 37024 ft 479 kts 148°
2026-04-22 15:14 23.42824 -106.46944 37046 ft 478 kts 148°
2026-04-22 15:14 23.37333 -106.42859 37044 ft 478 kts 148°
2026-04-22 15:15 23.31822 -106.38764 37047 ft 478 kts 148°
2026-04-22 15:15 23.26346 -106.34698 37060 ft 478 kts 148°
2026-04-22 15:16 23.20829 -106.30605 37045 ft 479 kts 148°
2026-04-22 15:16 23.15272 -106.26714 37071 ft 475 kts 157°
2026-04-22 15:17 23.09218 -106.24031 37081 ft 471 kts 163°
2026-04-22 15:17 23.03064 -106.21519 37076 ft 471 kts 163°
2026-04-22 15:18 22.96975 -106.18981 37066 ft 471 kts 162°
2026-04-22 15:18 22.90854 -106.16387 37042 ft 471 kts 162°
2026-04-22 15:19 22.84739 -106.13791 37039 ft 471 kts 162°
2026-04-22 15:19 22.78641 -106.11209 37044 ft 471 kts 162°
2026-04-22 15:20 22.72555 -106.08634 37040 ft 471 kts 162°
2026-04-22 15:20 22.66428 -106.06047 36608 ft 476 kts 162°
2026-04-22 15:21 22.63344 -106.04746 36115 ft 474 kts 162°
2026-04-22 15:21 22.60278 -106.03451 35642 ft 470 kts 162°
2026-04-22 15:21 22.57240 -106.02167 35234 ft 466 kts 162°
2026-04-22 15:21 22.54234 -106.00899 34811 ft 462 kts 162°
2026-04-22 15:22 22.51238 -105.99635 34387 ft 459 kts 162°
2026-04-22 15:22 22.48271 -105.98385 33987 ft 455 kts 162°
2026-04-22 15:22 22.45373 -105.97164 33615 ft 450 kts 162°
2026-04-22 15:22 22.42458 -105.95937 33188 ft 447 kts 162°
2026-04-22 15:23 22.39563 -105.94718 32776 ft 443 kts 162°
2026-04-22 15:23 22.36688 -105.93510 32362 ft 440 kts 162°
2026-04-22 15:23 22.33869 -105.92324 31958 ft 437 kts 162°
2026-04-22 15:23 22.31034 -105.91133 31551 ft 435 kts 162°
2026-04-22 15:24 22.28218 -105.89951 31141 ft 432 kts 162°
2026-04-22 15:24 22.25420 -105.88776 30745 ft 430 kts 162°
2026-04-22 15:24 22.22663 -105.87619 30333 ft 429 kts 162°
2026-04-22 15:24 22.19881 -105.86452 29897 ft 427 kts 162°
2026-04-22 15:25 22.17113 -105.85291 29449 ft 424 kts 162°
2026-04-22 15:25 22.14367 -105.84140 28997 ft 421 kts 162°
2026-04-22 15:25 22.11683 -105.83015 28563 ft 418 kts 162°
2026-04-22 15:25 22.08948 -105.81869 28124 ft 414 kts 162°
2026-04-22 15:26 22.06303 -105.80761 27694 ft 411 kts 162°
2026-04-22 15:26 22.03635 -105.79645 27268 ft 408 kts 162°
2026-04-22 15:26 22.00987 -105.78536 26845 ft 406 kts 162°
2026-04-22 15:26 21.98365 -105.77440 26415 ft 403 kts 162°
2026-04-22 15:27 21.95787 -105.76362 26002 ft 400 kts 162°
2026-04-22 15:27 21.93191 -105.75277 25578 ft 398 kts 162°
2026-04-22 15:27 21.90605 -105.74196 25147 ft 396 kts 162°
2026-04-22 15:27 21.88035 -105.73123 24708 ft 395 kts 162°
2026-04-22 15:28 21.85478 -105.72054 24285 ft 393 kts 162°
2026-04-22 15:28 21.82960 -105.71003 23856 ft 391 kts 161°
2026-04-22 15:28 21.80415 -105.69941 23378 ft 390 kts 161°
2026-04-22 15:28 21.77891 -105.68849 22898 ft 388 kts 157°
2026-04-22 15:29 21.75543 -105.67493 22417 ft 387 kts 152°
2026-04-22 15:29 21.73254 -105.65965 21944 ft 385 kts 149°
2026-04-22 15:29 21.71007 -105.64406 21481 ft 383 kts 149°
2026-04-22 15:30 21.66539 -105.61337 20554 ft 377 kts 150°
2026-04-22 15:30 21.64347 -105.59862 20107 ft 374 kts 150°
2026-04-22 15:30 21.62161 -105.58406 19645 ft 363 kts 150°
2026-04-22 15:30 21.60044 -105.57004 19213 ft 353 kts 151°
2026-04-22 15:31 21.57971 -105.55636 18766 ft 344 kts 151°
2026-04-22 15:31 21.55970 -105.54320 18307 ft 338 kts 151°
2026-04-22 15:31 21.53982 -105.53013 17837 ft 331 kts 151°
2026-04-22 15:31 21.52022 -105.51726 17435 ft 331 kts 151°
2026-04-22 15:32 21.50043 -105.50427 17023 ft 334 kts 150°
2026-04-22 15:32 21.48055 -105.49123 16609 ft 334 kts 150°
2026-04-22 15:32 21.46079 -105.47825 16199 ft 332 kts 150°
2026-04-22 15:32 21.44111 -105.46533 15794 ft 330 kts 150°
2026-04-22 15:33 21.42181 -105.45266 15401 ft 328 kts 150°
2026-04-22 15:33 21.40235 -105.43988 15000 ft 326 kts 150°
2026-04-22 15:33 21.38300 -105.42719 14606 ft 324 kts 150°
2026-04-22 15:33 21.36369 -105.41452 14207 ft 323 kts 150°
2026-04-22 15:34 21.34479 -105.40213 13801 ft 322 kts 149°
2026-04-22 15:34 21.32576 -105.38966 13376 ft 320 kts 149°
2026-04-22 15:34 21.30678 -105.37723 12964 ft 317 kts 149°
2026-04-22 15:34 21.28804 -105.36496 12595 ft 314 kts 149°
2026-04-22 15:35 21.27571 -105.35689 12373 ft 311 kts 149°
2026-04-22 15:35 21.25104 -105.34075 11898 ft 307 kts 149°
2026-04-22 15:35 21.23312 -105.32903 11557 ft 304 kts 149°
2026-04-22 15:35 21.21515 -105.31727 11209 ft 301 kts 149°
2026-04-22 15:36 21.19728 -105.30559 10870 ft 299 kts 149°
2026-04-22 15:36 21.17950 -105.29397 10529 ft 297 kts 149°
2026-04-22 15:36 21.16211 -105.28260 10198 ft 296 kts 149°
2026-04-22 15:36 21.14456 -105.27113 9860 ft 294 kts 149°
2026-04-22 15:37 21.12708 -105.25971 9499 ft 293 kts 149°
2026-04-22 15:37 21.10969 -105.24836 9149 ft 291 kts 149°
2026-04-22 15:37 21.09246 -105.23711 8813 ft 289 kts 149°
2026-04-22 15:37 21.07536 -105.22595 8478 ft 286 kts 149°
2026-04-22 15:38 21.05855 -105.21498 8174 ft 285 kts 149°
2026-04-22 15:38 21.02487 -105.19300 7528 ft 281 kts 149°
2026-04-22 15:38 21.00814 -105.18209 7213 ft 280 kts 149°
2026-04-22 15:39 20.99169 -105.17137 6902 ft 279 kts 149°
2026-04-22 15:39 20.97516 -105.16058 6580 ft 277 kts 149°
2026-04-22 15:39 20.95871 -105.14987 6255 ft 276 kts 149°
2026-04-22 15:39 20.94238 -105.13924 5925 ft 273 kts 149°
2026-04-22 15:40 20.92627 -105.12875 5593 ft 266 kts 149°
2026-04-22 15:40 20.91122 -105.11788 5270 ft 257 kts 141°
2026-04-22 15:40 20.89783 -105.10603 4981 ft 248 kts 140°
2026-04-22 15:40 20.88472 -105.09420 4699 ft 245 kts 140°
2026-04-22 15:41 20.87168 -105.08255 4409 ft 244 kts 140°
2026-04-22 15:41 20.85700 -105.07399 4106 ft 242 kts 171°
2026-04-22 15:41 20.84070 -105.07637 3880 ft 239 kts 208°
2026-04-22 15:41 20.82724 -105.08661 3635 ft 237 kts 220°
2026-04-22 15:42 20.81546 -105.09870 3357 ft 234 kts 227°
2026-04-22 15:42 20.80465 -105.11135 3063 ft 227 kts 227°
2026-04-22 15:42 20.79411 -105.12353 2809 ft 218 kts 227°
2026-04-22 15:42 20.78406 -105.13502 2585 ft 205 kts 227°
2026-04-22 15:43 20.77454 -105.14592 2355 ft 194 kts 227°
2026-04-22 15:43 20.76582 -105.15593 2154 ft 179 kts 227°
2026-04-22 15:43 20.75766 -105.16524 1967 ft 165 kts 227°
2026-04-22 15:43 20.75014 -105.17385 1847 ft 152 kts 228°
2026-04-22 15:44 20.74291 -105.18215 1651 ft 152 kts 228°
2026-04-22 15:44 20.73586 -105.19023 1448 ft 148 kts 228°
2026-04-22 15:44 20.72892 -105.19817 1245 ft 144 kts 228°
2026-04-22 15:44 20.72202 -105.20608 1055 ft 147 kts 227°
2026-04-22 15:45 20.71490 -105.21399 926 ft 146 kts 226°
2026-04-22 15:45 20.70783 -105.22190 730 ft 149 kts 229°
2026-04-22 15:45 20.70094 -105.23001 532 ft 151 kts 229°
2026-04-22 15:45 20.69381 -105.23842 285 ft 151 kts 227°
2026-04-22 15:46 20.68663 -105.24661 34 ft 144 kts 227°
2026-04-22 15:46 20.68071 -105.25349 22 ft 110 kts 226°
2026-04-22 15:46 20.67647 -105.25834 19 ft 61 kts 227°
2026-04-22 15:46 20.67508 -105.25933 17 ft 9 kts 193°
2026-04-22 15:47 20.67446 -105.25949 17 ft 9 kts 193°
2026-04-22 15:47 20.67385 -105.25960 17 ft 9 kts 173°
2026-04-22 15:47 20.67366 -105.25910 18 ft 9 kts 69°
2026-04-22 15:47 20.67403 -105.25860 18 ft 8 kts 46°
2026-04-22 15:48 20.67439 -105.25813 18 ft 8 kts 50°
2026-04-22 15:48 20.67477 -105.25768 18 ft 8 kts 44°
2026-04-22 15:48 20.67516 -105.25726 19 ft 9 kts 46°
2026-04-22 15:48 20.67564 -105.25676 19 ft 11 kts 45°
2026-04-22 15:49 20.67618 -105.25607 19 ft 14 kts 50°
2026-04-22 15:49 20.67691 -105.25524 20 ft 17 kts 46°
2026-04-22 15:49 20.67776 -105.25428 21 ft 19 kts 46°
2026-04-22 15:49 20.67867 -105.25325 22 ft 16 kts 47°
2026-04-22 15:50 20.67914 -105.25269 21 ft 10 kts 60°
2026-04-22 15:50 20.67889 -105.25198 21 ft 13 kts 138°
2026-04-22 15:50 20.67824 -105.25130 23 ft 13 kts 120°
2026-04-22 15:50 20.67841 -105.25038 21 ft 9 kts 88°
2026-04-22 15:51 20.67841 -105.25036 21 ft 0 kts 88°